Theta_e
306 305 304 302 301 302 302 302 302 302 302 302 302 301 302 305 305 305 305 303 303 304 304 305 304 303 303 301 303 306 308 312 314 316 315 315 315 315 313 310 309 305 304 303 303 305 300
308 306 305 302 301 302 302 302 302 302 302 302 302 301 302 304 305 304 304 302 302 302 302 302 303 303 304 301 303 306 310 313 315 315 315 315 314 315 312 308 308 306 304 303 304 302 300
309 307 305 303 302 302 302 302 302 302 302 302 302 301 301 303 305 304 305 303 305 305 305 301 302 302 303 301 303 304 309 313 314 315 314 314 315 314 311 306 305 305 303 303 303 302 300
305 308 306 305 303 301 302 302 302 302 302 302 302 301 300 302 303 304 304 303 305 304 301 301 302 301 299 299 302 304 306 309 311 313 313 313 313 313 310 307 306 304 303 305 302 302 300
303 306 308 307 305 302 301 302 301 302 302 302 302 302 300 300 302 302 302 303 303 304 300 301 301 301 298 299 301 303 305 308 310 310 312 312 313 309 308 306 307 305 306 305 301 300 301
307 303 307 307 306 304 302 301 301 302 302 302 302 302 301 300 301 301 302 301 303 301 300 300 300 300 299 299 303 305 305 308 309 308 309 308 309 305 305 304 305 308 308 305 303 298 299
313 307 303 308 308 305 303 302 302 302 303 303 303 302 301 300 300 300 301 303 302 303 299 297 298 297 298 301 303 305 305 305 304 304 301 300 302 307 306 301 300 302 304 302 297 297 296
316 314 308 303 307 307 306 303 302 302 303 303 303 303 303 302 300 300 300 301 299 299 298 297 297 296 297 298 300 304 303 303 303 300 299 296 298 296 297 297 298 299 298 296 295 295 295
313 317 315 311 305 305 306 305 303 302 303 303 303 303 303 304 301 301 299 299 299 299 300 297 297 296 296 297 296 300 301 299 298 297 295 297 295 295 296 296 297 294 297 295 295 294 293
313 313 316 316 314 308 305 305 303 303 303 303 303 304 304 305 305 301 301 299 299 298 299 299 298 297 297 297 296 296 297 298 297 296 295 295 294 294 295 295 294 295 294 294 294 291 292
315 315 314 316 317 316 312 307 304 306 305 304 304 306 306 304 304 302 301 299 299 302 312 299 297 296 297 297 296 295 296 297 296 295 295 296 294 294 294 293 295 294 293 293 293 292 291
321 320 317 317 317 318 316 313 311 307 304 304 304 308 309 306 306 303 300 299 301 306 309 300 297 297 297 297 296 295 295 296 295 294 292 293 293 293 293 293 293 293 293 293 291 291 290
321 322 321 319 319 320 318 317 315 306 304 303 304 309 309 308 305 301 300 303 307 310 301 300 298 296 296 296 296 295 295 293 294 295 294 293 293 292 293 292 293 293 293 296 295 294 294
320 320 322 321 320 319 319 318 317 311 307 302 303 307 309 308 305 301 302 304 314 305 300 297 297 297 296 295 296 295 295 293 293 296 293 295 297 292 292 293 294 294 295 300 299 298 296
321 320 321 321 321 321 320 320 318 315 309 302 302 305 308 308 305 301 304 309 311 301 299 297 297 297 296 295 295 295 294 293 294 293 294 293 296 291 291 292 293 293 294 296 298 295 291
321 321 322 321 322 321 321 321 319 317 308 304 301 304 306 305 304 300 303 310 302 299 297 297 300 298 298 296 295 294 294 294 294 293 295 294 293 291 291 292 291 293 293 294 296 300 297
321 320 322 322 321 322 321 320 319 318 308 310 300 306 306 304 300 300 305 303 299 297 298 298 298 298 297 296 294 294 296 294 293 292 293 293 293 291 290 290 291 292 293 293 295 297 299
320 318 321 322 322 321 320 320 319 318 316 308 304 308 304 300 300 300 300 300 298 296 297 296 295 296 296 294 295 293 294 294 292 292 293 292 289 289 290 287 287 289 291 291 295 296 293
306 306 306 307 313 317 320 319 318 317 317 310 306 307 304 300 306 300 298 297 297 296 296 295 296 295 294 295 299 296 294 291 291 291 290 290 289 288 292 287 287 288 288 289 288 287 289
298 298 298 299 300 306 308 317 317 316 316 310 309 304 300 299 297 298 298 298 298 296 296 296 294 293 293 294 295 296 296 290 290 291 293 291 283 291 302 295 286 286 289 290 292 288 291
297 297 298 298 300 307 313 312 315 314 315 310 309 304 302 299 296 296 302 302 299 298 295 295 294 293 291 297 292 292 292 289 289 291 291 289 285 285 286 286 287 289 289 289 290 291 292
297 297 297 298 300 304 312 315 314 313 314 309 308 304 300 297 298 298 300 301 302 298 298 296 294 293 293 298 294 298 290 287 290 287 286 284 287 283 286 286 288 289 287 289 290 290 291
297 297 297 298 300 301 306 312 313 313 312 308 307 307 307 299 297 298 299 301 301 299 297 297 293 293 292 293 292 290 289 288 288 286 288 287 287 288 291 282 282 287 287 288 290 290 292
296 296 297 303 308 305 302 301 308 309 311 311 311 307 305 302 299 300 300 299 300 298 301 294 294 294 291 289 290 289 288 285 285 282 285 286 287 289 288 283 289 288 274 279 286 284 281
296 296 296 302 309 309 310 309 309 308 310 310 309 308 307 302 300 299 300 300 297 297 294 293 290 291 290 291 290 285 284 282 278 278 281 281 287 289 290 282 286 285 279 280 282 282 271
295 295 296 296 301 310 309 310 311 310 309 308 308 307 306 303 300 302 300 299 296 293 289 286 287 288 289 290 290 290 291 289 284 279 278 281 281 289 286 289 287 282 277 278 277 281 274
295 295 295 296 298 303 308 308 307 307 308 307 306 305 305 304 301 301 299 298 298 292 285 283 284 285 286 285 290 287 286 282 286 281 278 281 282 286 288 289 284 276 277 277 282 283 274
296 296 295 295 295 298 303 304 305 305 304 305 304 303 304 303 300 300 298 297 295 293 288 284 285 282 283 286 287 286 285 283 280 277 278 282 284 283 286 286 284 276 275 281 274 273 273
297 297 296 296 295 295 300 304 304 304 304 304 305 304 303 302 297 296 296 296 295 294 293 288 289 284 286 285 286 289 288 284 281 286 276 284 285 284 285 284 274 274 274 273 273 273 272
Wind_Speed
3 2 3 4 5 5 6 7 8 9 10 11 12 12 11 13 14 15 18 16 13 8 6 2 1 0 2 4 5 4 4 5 7 11 10 8 5 3 5 8 7 6 5 10 12 11 14
2 2 2 3 4 4 4 5 7 8 9 10 11 10 10 10 11 13 14 12 10 8 6 6 3 0 1 4 4 6 5 6 7 9 6 5 3 8 10 5 4 8 16 14 7 10 10
0 1 1 2 2 3 3 4 5 7 8 9 9 9 8 7 8 9 7 6 5 3 3 3 0 3 4 4 3 5 4 6 7 5 5 5 8 3 7 8 13 15 6 4 6 6 5
2 1 1 2 2 2 2 3 4 6 7 8 8 8 6 6 6 6 2 4 4 2 3 1 1 3 5 4 3 2 3 3 5 6 6 9 10 11 6 20 6 4 3 3 3 7 9
4 3 2 1 2 2 2 2 3 5 6 7 7 7 6 4 3 3 2 2 3 1 2 2 1 2 3 4 3 2 3 5 7 6 6 9 6 7 8 5 4 1 3 4 2 12 5
6 5 4 3 3 3 2 1 2 3 5 6 7 6 5 4 3 2 3 1 3 5 1 2 4 3 4 3 4 4 4 4 4 5 6 4 5 4 3 3 4 5 4 3 5 5 5
9 7 6 4 3 3 2 2 1 2 4 5 6 6 5 4 2 2 4 3 2 1 10 7 5 4 3 4 4 3 4 5 4 4 2 4 5 5 5 2 2 1 2 1 3 1 2
11 9 7 5 4 3 2 2 1 1 3 4 5 5 5 5 3 3 4 3 3 1 6 7 8 7 4 4 2 2 3 2 3 2 2 5 2 2 2 2 2 2 1 1 2 1 1
12 11 9 7 5 4 3 2 2 1 2 3 4 4 5 5 3 4 3 3 2 3 3 4 5 4 3 4 4 5 5 3 5 4 4 3 2 1 2 2 3 2 3 3 3 2 4
14 13 12 9 7 5 4 3 3 1 0 2 3 3 4 4 2 4 2 2 2 1 4 3 3 3 2 3 4 4 4 3 5 4 3 3 1 2 3 2 2 2 1 2 3 3 4
20 19 16 11 9 6 5 4 3 2 1 1 1 2 3 4 3 3 3 1 3 1 3 2 2 2 4 3 2 3 3 2 3 2 4 2 4 2 2 1 1 1 2 2 2 2 4
21 20 18 16 12 9 7 6 5 4 3 2 1 2 3 3 4 3 2 3 1 4 3 1 1 1 2 2 3 3 2 3 4 3 5 1 0 1 2 3 3 6 4 4 4 2 2
14 16 18 18 15 12 9 9 7 5 5 4 3 1 2 3 2 1 2 1 4 3 1 1 0 1 0 1 2 2 2 0 4 2 2 2 1 2 4 4 4 3 4 3 4 1 6
16 18 22 20 17 17 13 11 8 7 6 5 4 2 1 2 2 2 1 4 2 1 1 1 2 1 1 3 1 2 2 3 3 3 2 4 4 5 3 1 3 3 2 4 6 3 5
24 20 24 22 20 19 15 13 10 9 8 7 6 4 4 3 2 2 2 2 3 3 4 5 2 2 0 1 1 2 3 3 3 7 6 3 2 1 4 2 1 4 5 1 1 2 2
27 24 23 20 23 22 19 19 13 11 10 9 7 4 5 5 4 5 3 4 3 2 5 2 1 1 2 2 1 1 3 3 2 1 2 2 3 2 0 0 1 1 2 3 1 3 6
25 25 23 28 22 26 24 23 17 17 14 13 8 2 2 6 7 3 3 5 3 3 2 3 2 1 3 3 3 3 3 1 1 1 3 3 3 1 1 8 8 4 3 2 0 4 4
20 20 20 18 19 20 16 20 20 19 18 15 9 2 4 11 3 1 2 3 3 4 3 2 3 3 3 6 5 4 5 3 3 4 5 3 4 4 11 1 3 3 4 5 4 6 3
22 23 24 25 26 24 23 21 18 20 17 15 8 6 8 13 3 2 1 1 1 2 2 3 4 4 2 6 1 6 4 1 3 2 5 4 2 3 5 4 3 5 5 3 3 3 7
16 17 18 21 24 23 24 24 21 20 17 18 7 3 4 7 2 3 3 3 3 1 1 2 3 3 2 2 2 3 4 0 1 3 2 1 2 7 11 4 4 4 6 12 12 4 5
10 10 12 15 19 21 19 23 22 21 16 18 7 3 6 3 5 5 2 1 2 2 1 4 1 5 6 3 2 5 2 1 2 4 2 2 5 3 6 5 5 11 6 12 18 22 12
10 9 9 12 16 23 24 24 22 18 19 19 8 7 7 5 7 7 4 4 6 4 6 4 4 3 6 6 7 4 5 3 6 2 4 2 4 2 5 5 10 18 13 18 21 22 24
8 7 6 9 13 19 25 26 24 20 18 10 12 9 6 9 5 5 5 5 7 9 6 4 7 4 4 11 7 3 5 3 5 8 8 4 3 1 6 3 6 11 14 21 17 14 18
7 7 6 7 11 13 22 22 25 23 19 15 12 12 7 3 4 5 7 10 7 11 2 4 5 7 3 3 3 1 2 2 2 4 2 5 5 3 3 3 5 5 3 3 13 5 5
8 7 7 9 16 13 13 15 15 19 21 20 15 11 10 3 6 6 11 7 6 4 3 3 4 4 8 3 1 5 3 5 3 3 1 1 4 3 3 3 9 7 2 4 5 5 1
9 8 8 8 12 17 16 15 15 16 14 18 13 14 6 10 8 3 7 9 4 4 3 3 2 12 7 3 2 4 5 3 4 4 3 2 3 5 2 4 7 5 3 0 1 4 2
9 8 8 8 8 18 20 18 15 17 17 17 15 16 11 6 6 12 5 5 8 5 3 5 8 7 9 2 3 4 5 4 3 5 4 3 2 12 11 7 8 2 1 1 4 4 6
9 9 8 8 9 11 15 19 21 18 20 17 17 16 16 7 10 14 13 8 8 8 5 11 6 3 2 3 4 4 4 5 1 3 6 8 8 4 4 5 10 1 2 5 4 7 4
10 8 8 8 9 10 14 16 18 22 23 19 22 18 20 12 4 9 14 15 16 11 11 20 2 7 12 3 2 2 3 3 4 4 2 3 6 5 10 5 2 2 3 8 5 4 3
Wind_Direction
81 75 105 111 94 70 58 54 50 45 41 38 34 37 45 54 61 86 99 104 108 88 53 68 16 105 36 65 65 60 84 126 138 151 152 153 153 133 120 115 91 92 128 85 115 121 104
95 87 110 120 112 98 77 54 46 42 39 38 37 39 46 61 74 101 100 90 84 92 49 58 74 157 105 80 81 70 96 134 158 157 145 145 104 127 99 66 70 124 118 128 127 123 128
155 110 118 130 122 101 73 58 48 43 38 36 36 40 48 65 82 115 105 72 46 31 19 17 208 41 100 93 124 85 112 131 146 152 123 108 133 174 116 95 114 119 89 86 153 149 135
200 243 159 167 159 135 88 67 50 42 39 36 33 36 49 75 90 111 103 346 350 34 22 79 88 29 83 80 139 105 105 133 148 141 129 104 118 118 103 119 93 75 73 138 203 152 166
208 200 213 198 188 170 139 77 53 43 37 33 31 30 41 72 94 66 12 10 8 302 39 180 17 46 78 60 81 80 96 104 113 124 150 139 139 91 120 87 50 285 204 200 231 202 150
214 207 204 197 192 183 169 115 64 45 38 36 33 35 39 59 83 67 56 353 327 25 240 111 72 72 49 25 64 82 107 115 84 102 122 107 67 70 52 75 216 204 218 202 207 210 169
222 209 207 200 193 188 178 161 129 53 33 30 32 38 41 44 68 46 3 347 28 320 52 48 36 73 71 74 76 76 106 115 77 71 67 29 86 190 198 169 173 152 272 230 351 20 186
227 216 207 204 200 193 198 193 167 72 40 28 28 28 32 36 69 26 4 58 47 83 78 58 51 71 66 21 24 77 60 69 49 72 35 24 229 193 141 123 115 107 142 157 357 354 303
230 221 210 206 205 203 209 212 189 132 43 23 25 23 16 20 60 13 28 52 94 105 75 44 41 40 30 21 39 359 19 46 57 59 11 141 350 342 29 39 116 47 181 179 179 299 263
221 230 214 209 210 211 213 211 201 196 54 16 11 13 8 4 14 6 15 345 158 120 82 351 7 24 13 92 49 49 51 56 39 137 101 89 326 110 72 55 63 266 358 98 97 71 233
224 217 220 215 211 209 219 215 214 226 235 285 348 348 7 9 345 356 333 147 146 357 358 8 357 6 41 65 74 32 72 92 105 114 110 209 161 138 144 89 89 224 63 63 39 37 15
228 225 217 216 212 211 216 219 217 233 225 230 259 324 344 3 340 327 105 128 175 46 266 122 56 25 67 37 29 4 24 71 100 84 34 85 291 58 123 80 102 139 78 46 54 75 316
222 242 233 224 215 213 218 226 229 223 226 226 224 248 325 336 335 336 109 348 25 138 75 108 174 97 319 59 23 31 15 334 175 93 194 351 237 19 132 87 11 79 94 316 323 356 238
227 240 240 232 223 221 215 224 225 225 220 220 234 238 299 323 313 159 35 40 271 52 184 224 118 115 113 20 29 353 1 288 224 111 124 176 296 178 177 219 185 191 182 179 252 246 278
234 246 241 236 231 228 219 229 225 232 220 218 221 227 229 238 212 189 84 66 233 197 148 149 124 74 26 103 10 7 229 233 225 193 170 136 251 71 34 354 124 173 209 110 62 212 358
236 237 246 235 235 234 227 233 214 230 221 220 220 223 237 240 205 162 86 241 203 124 130 135 228 181 239 207 193 158 207 194 179 106 150 199 348 352 2 345 340 193 164 95 91 284 273
232 239 247 242 239 243 228 238 219 223 215 216 197 205 213 180 159 149 174 227 154 158 184 168 179 219 239 207 198 223 253 328 140 135 100 127 120 307 80 206 183 154 212 161 345 185 216
231 238 235 235 232 230 231 230 230 230 230 198 180 114 196 165 100 41 178 223 147 172 180 126 123 158 189 156 186 248 238 225 167 176 170 174 153 213 211 38 1 316 226 164 191 209 239
242 244 242 239 235 229 223 230 224 237 239 191 180 151 180 173 161 212 259 41 238 143 235 172 180 197 191 182 235 210 233 158 208 190 167 192 244 334 311 6 355 225 207 174 75 44 203
228 229 231 227 224 222 224 220 226 228 221 192 162 117 105 191 177 136 183 202 206 135 149 178 125 98 106 229 268 257 244 175 198 217 173 160 171 194 246 211 130 207 210 206 204 198 232
209 220 229 225 217 212 210 211 223 224 225 187 172 159 152 172 229 174 101 110 175 168 341 217 270 197 163 219 276 232 187 355 229 211 166 137 228 219 265 235 212 233 198 202 217 228 222
212 216 217 215 213 209 204 207 215 217 223 196 167 149 154 135 123 120 180 218 197 165 168 241 204 197 188 202 200 226 146 204 212 97 145 356 270 74 285 269 252 266 233 229 226 231 243
206 214 220 216 210 205 203 205 210 212 202 172 192 175 156 156 141 143 201 196 207 168 207 207 196 123 219 246 254 223 208 181 214 163 179 166 190 120 269 332 326 287 240 221 235 231 234
200 204 200 179 174 184 198 201 205 204 209 211 209 175 155 163 174 203 176 191 192 206 210 177 177 153 195 152 103 215 230 345 53 34 157 156 149 180 281 1 263 263 197 203 228 262 301
202 186 175 169 169 161 153 161 169 187 203 211 197 180 169 147 183 182 192 178 162 155 155 171 204 199 161 131 50 349 333 1 343 13 316 4 152 224 247 216 303 300 295 148 163 278 237
197 187 173 169 179 178 175 182 191 203 201 197 203 199 176 131 217 158 165 193 173 142 132 156 163 164 161 149 127 214 234 228 277 328 22 345 2 208 154 235 249 239 268 315 92 286 85
190 185 179 168 169 177 190 193 192 199 192 201 208 217 210 182 195 200 185 187 173 137 103 145 154 175 175 144 187 200 245 179 235 186 174 140 218 222 227 247 278 257 269 90 97 240 132
194 194 186 187 185 177 186 192 198 206 203 210 212 218 212 206 208 204 211 183 168 183 158 147 123 192 131 179 187 222 193 228 149 177 180 174 168 197 199 229 269 91 89 179 142 121 131
201 203 207 206 206 209 199 205 204 203 220 213 220 215 218 220 187 218 214 215 219 205 197 176 238 162 174 153 207 202 223 180 185 253 357 246 201 186 200 218 67 88 117 130 142 147 167